CUSat

operational
NORAD ID: 39266 Int'l Des: 2013-055 Owner: CORN Country: US
LEOPOLAR

Über CUSat

Beschreibung wird geladen...

Live-Position

3D-Globus wird geladen...

Nächste Überflüge

Höhenverlauf

Altitude vs Time

uPlot chart will show altitude changes over time

Zweizeiliger Elementsatz

1 39266U 13055B 26061.14073339 .00161624 67875-5 67448-3 0 9995
2 39266 80.9347 124.4084 0144700 196.7954 162.8490 15.71251567656040
Epoch: 2. März 2026 • Age: 37 hours

Aktueller Status

Höhe 344.7 km
Geschwindigkeit 7.72 km/s
Subsatellitenpunkt -76.76°S, 4.84°W
Startdatum 29. Sept. 2013
Alter 12.4 years
Typ other

Technische Details

Klassifizierung Payload
Masse 23.00 kg
Trockenmasse 23.00 kg
Gesamtmasse 23.00 kg
Länge 0.26 m
Durchmesser 0.46 m
Spannweite 0.46 m
Form Hex Cyl
Hersteller CORN
Bus-Typ CUSAT
Phasenstatus In Orbit
Besitzer/Staat CORN/US

Große Konstellationen

Loading constellations...